owner,sensor,date,latitude,longitude,vertical_datum,direction_of_sea_water_velocity,sea_water_speed,upward_sea_water_velocity,qcFlag 
TABS,ioos:station:wmo:42050:1,2015-03-15T05:00:00Z,28.8425,-94.2433,2.0,208.8395025,30.30918838,-99999.0,'11111222,11111222,99999999' 
TABS,ioos:station:wmo:42050:1,2015-03-15T05:30:00Z,28.8425,-94.2433,2.0,214.3281015,31.6170998,-99999.0,'11111222,11111222,99999999' 
TABS,ioos:station:wmo:42050:1,2015-03-15T06:00:00Z,28.8425,-94.2433,2.0,211.4945201,33.30645583,-99999.0,'11111222,11111222,99999999' 
TABS,ioos:station:wmo:42050:1,2015-03-15T06:30:00Z,28.8425,-94.2433,2.0,217.3926832,34.61344248,-99999.0,'11111222,11111222,99999999' 
TABS,ioos:station:wmo:42050:1,2015-03-15T07:00:00Z,28.8425,-94.2433,2.0,217.6626112,38.149654,-99999.0,'11111222,11111222,99999999' 
TABS,ioos:station:wmo:42050:1,2015-03-15T07:30:00Z,28.8425,-94.2433,2.0,223.0471798,38.60215797,-99999.0,'11111222,11111222,99999999' 
TABS,ioos:station:wmo:42050:1,2015-03-15T08:00:00Z,28.8425,-94.2433,2.0,224.3803509,39.90436693,-99999.0,'11111222,11111222,99999999' 
TABS,ioos:station:wmo:42050:1,2015-03-15T08:30:00Z,28.8425,-94.2433,2.0,230.3874258,39.08476046,-99999.0,'11111222,11111222,99999999' 
TABS,ioos:station:wmo:42050:1,2015-03-15T09:00:00Z,28.8425,-94.2433,2.0,236.6923584,36.9494046,-99999.0,'11111222,11111222,99999999' 
TABS,ioos:station:wmo:42050:1,2015-03-15T09:30:00Z,28.8425,-94.2433,2.0,241.5489647,35.20135509,-99999.0,'11111222,11111222,99999999' 
TABS,ioos:station:wmo:42050:1,2015-03-15T10:00:00Z,28.8425,-94.2433,2.0,245.8920898,33.68827838,-99999.0,'11111222,11111222,99999999' 
TABS,ioos:station:wmo:42050:1,2015-03-15T10:30:00Z,28.8425,-94.2433,2.0,258.3998378,34.11679938,-99999.0,'11111222,11111222,99999999' 
TABS,ioos:station:wmo:42050:1,2015-03-15T11:00:00Z,28.8425,-94.2433,2.0,258.6052389,31.93950845,-99999.0,'11111222,11111222,99999999' 
TABS,ioos:station:wmo:42050:1,2015-03-15T11:30:00Z,28.8425,-94.2433,2.0,261.5864999,31.78200906,-99999.0,'11111222,11111222,99999999' 
TABS,ioos:station:wmo:42050:1,2015-03-15T12:00:00Z,28.8425,-94.2433,2.0,264.9274581,30.53958742,-99999.0,'11111222,11111222,99999999' 
TABS,ioos:station:wmo:42050:1,2015-03-15T12:30:00Z,28.8425,-94.2433,2.0,269.7451074,29.27028869,-99999.0,'11111222,11111222,99999999' 
TABS,ioos:station:wmo:42050:1,2015-03-15T13:00:00Z,28.8425,-94.2433,2.0,274.0195566,28.24947433,-99999.0,'11111222,11111222,99999999' 
TABS,ioos:station:wmo:42050:1,2015-03-15T13:30:00Z,28.8425,-94.2433,2.0,278.3719471,26.51249705,-99999.0,'11111222,11111222,99999999' 
TABS,ioos:station:wmo:42050:1,2015-03-15T14:00:00Z,28.8425,-94.2433,2.0,275.9313992,27.67815926,-99999.0,'11111222,11111222,99999999' 
TABS,ioos:station:wmo:42050:1,2015-03-15T14:30:00Z,28.8425,-94.2433,2.0,285.2342382,25.99337031,-99999.0,'11111222,11111222,99999999' 
TABS,ioos:station:wmo:42050:1,2015-03-15T15:00:00Z,28.8425,-94.2433,2.0,283.3302904,24.59255578,-99999.0,'11111222,11111222,99999999' 
TABS,ioos:station:wmo:42050:1,2015-03-15T15:30:00Z,28.8425,-94.2433,2.0,279.4132725,24.76342868,-99999.0,'11111222,11111222,99999999' 
TABS,ioos:station:wmo:42050:1,2015-03-15T16:00:00Z,28.8425,-94.2433,2.0,281.7172907,23.1932792,-99999.0,'11111222,11111222,99999999' 
TABS,ioos:station:wmo:42050:1,2015-03-15T16:30:00Z,28.8425,-94.2433,2.0,280.0999652,22.46815524,-99999.0,'11111222,11111222,99999999' 
TABS,ioos:station:wmo:42050:1,2015-03-15T17:00:00Z,28.8425,-94.2433,2.0,272.9226239,19.61550662,-99999.0,'11111222,11111222,99999999' 
TABS,ioos:station:wmo:42050:1,2015-03-15T17:30:00Z,28.8425,-94.2433,2.0,272.037329,21.66368851,-99999.0,'11111222,11111222,99999999' 
TABS,ioos:station:wmo:42050:1,2015-03-15T18:00:00Z,28.8425,-94.2433,2.0,268.0281783,22.3832482,-99999.0,'11111222,11111222,99999999' 
TABS,ioos:station:wmo:42050:1,2015-03-15T18:30:00Z,28.8425,-94.2433,2.0,266.0798927,21.65064433,-99999.0,'11111222,11111222,99999999' 
TABS,ioos:station:wmo:42050:1,2015-03-15T19:00:00Z,28.8425,-94.2433,2.0,265.8115505,22.31959901,-99999.0,'11111222,11111222,99999999' 
TABS,ioos:station:wmo:42050:1,2015-03-15T19:30:00Z,28.8425,-94.2433,2.0,264.3346934,23.70577356,-99999.0,'11111222,11111222,99999999' 
TABS,ioos:station:wmo:42050:1,2015-03-15T20:00:00Z,28.8425,-94.2433,2.0,267.468963,22.42186656,-99999.0,'11111222,11111222,99999999' 
TABS,ioos:station:wmo:42050:1,2015-03-15T20:30:00Z,28.8425,-94.2433,2.0,273.737092,21.17501594,-99999.0,'11111222,11111222,99999999' 
TABS,ioos:station:wmo:42050:1,2015-03-15T21:00:00Z,28.8425,-94.2433,2.0,281.4417387,22.23178355,-99999.0,'11111222,11111222,99999999' 
TABS,ioos:station:wmo:42050:1,2015-03-15T21:30:00Z,28.8425,-94.2433,2.0,280.0753075,19.83587155,-99999.0,'11111222,11111222,99999999' 
TABS,ioos:station:wmo:42050:1,2015-03-15T22:00:00Z,28.8425,-94.2433,2.0,273.4149002,20.31606507,-99999.0,'11111222,11111222,99999999' 
TABS,ioos:station:wmo:42050:1,2015-03-15T22:30:00Z,28.8425,-94.2433,2.0,274.6955979,20.15764371,-99999.0,'11111222,11111222,99999999' 
TABS,ioos:station:wmo:42050:1,2015-03-15T23:00:00Z,28.8425,-94.2433,2.0,280.3678139,18.8375423,-99999.0,'11111222,11111222,99999999' 
TABS,ioos:station:wmo:42050:1,2015-03-15T23:30:00Z,28.8425,-94.2433,2.0,283.324921,18.35408674,-99999.0,'11111222,11111222,99999999' 
TABS,ioos:station:wmo:42050:1,2015-03-16T00:00:00Z,28.8425,-94.2433,2.0,279.6867871,17.23572163,-99999.0,'11111222,11111222,99999999' 
TABS,ioos:station:wmo:42050:1,2015-03-16T00:30:00Z,28.8425,-94.2433,2.0,281.8377524,17.25698989,-99999.0,'11111222,11111222,99999999' 
TABS,ioos:station:wmo:42050:1,2015-03-16T01:00:00Z,28.8425,-94.2433,2.0,279.2246196,16.21974414,-99999.0,'11111222,11111222,99999999' 
TABS,ioos:station:wmo:42050:1,2015-03-16T01:30:00Z,28.8425,-94.2433,2.0,285.2320482,14.99681633,-99999.0,'11111222,11111222,99999999' 
TABS,ioos:station:wmo:42050:1,2015-03-16T02:00:00Z,28.8425,-94.2433,2.0,280.9918602,15.52479307,-99999.0,'11111222,11111222,99999999' 
TABS,ioos:station:wmo:42050:1,2015-03-16T02:30:00Z,28.8425,-94.2433,2.0,275.1850719,15.93519689,-99999.0,'11111222,11111222,99999999' 
TABS,ioos:station:wmo:42050:1,2015-03-16T03:00:00Z,28.8425,-94.2433,2.0,266.2273043,14.59161403,-99999.0,'11111222,11111222,99999999' 
TABS,ioos:station:wmo:42050:1,2015-03-16T03:30:00Z,28.8425,-94.2433,2.0,275.4736369,13.2102271,-99999.0,'11111222,11111222,99999999' 
TABS,ioos:station:wmo:42050:1,2015-03-16T04:00:00Z,28.8425,-94.2433,2.0,262.8745794,13.86708333,-99999.0,'11111222,11111222,99999999' 
TABS,ioos:station:wmo:42050:1,2015-03-16T04:30:00Z,28.8425,-94.2433,2.0,267.6382099,16.50401466,-99999.0,'11111222,11111222,99999999' 
TABS,ioos:station:wmo:42050:1,2015-03-16T05:00:00Z,28.8425,-94.2433,2.0,256.8025801,13.57860081,-99999.0,'11111222,11111222,99999999' 
TABS,ioos:station:wmo:42050:1,2015-03-16T05:30:00Z,28.8425,-94.2433,2.0,255.6502806,14.64694507,-99999.0,'11111222,11111222,99999999' 
TABS,ioos:station:wmo:42050:1,2015-03-16T06:00:00Z,28.8425,-94.2433,2.0,247.0738772,15.99330485,-99999.0,'11111222,11111222,99999999' 
TABS,ioos:station:wmo:42050:1,2015-03-16T06:30:00Z,28.8425,-94.2433,2.0,239.7690511,17.55774758,-99999.0,'11111222,11111222,99999999' 
TABS,ioos:station:wmo:42050:1,2015-03-16T07:00:00Z,28.8425,-94.2433,2.0,238.1497813,17.96491024,-99999.0,'11111222,11111222,99999999' 
TABS,ioos:station:wmo:42050:1,2015-03-16T07:30:00Z,28.8425,-94.2433,2.0,236.8699211,20.41949069,-99999.0,'11111222,11111222,99999999' 
TABS,ioos:station:wmo:42050:1,2015-03-16T08:00:00Z,28.8425,-94.2433,2.0,238.068335,22.14019422,-99999.0,'11111222,11111222,99999999' 
TABS,ioos:station:wmo:42050:1,2015-03-16T08:30:00Z,28.8425,-94.2433,2.0,237.7614213,21.12699221,-99999.0,'11111222,11111222,99999999' 
TABS,ioos:station:wmo:42050:1,2015-03-16T09:00:00Z,28.8425,-94.2433,2.0,241.0852598,23.01954387,-99999.0,'11111222,11111222,99999999' 
TABS,ioos:station:wmo:42050:1,2015-03-16T09:30:00Z,28.8425,-94.2433,2.0,241.6779322,24.0714042,-99999.0,'11111222,11111222,99999999' 
TABS,ioos:station:wmo:42050:1,2015-03-16T10:00:00Z,28.8425,-94.2433,2.0,245.838926,23.77244203,-99999.0,'11111222,11111222,99999999' 
TABS,ioos:station:wmo:42050:1,2015-03-16T10:30:00Z,28.8425,-94.2433,2.0,248.698408,23.39850423,-99999.0,'11111222,11111222,99999999' 
TABS,ioos:station:wmo:42050:1,2015-03-16T11:00:00Z,28.8425,-94.2433,2.0,254.2931282,24.04792299,-99999.0,'11111222,11111222,99999999' 
TABS,ioos:station:wmo:42050:1,2015-03-16T11:30:00Z,28.8425,-94.2433,2.0,261.2821425,24.28049423,-99999.0,'11111222,11111222,99999999' 
TABS,ioos:station:wmo:42050:1,2015-03-16T12:00:00Z,28.8425,-94.2433,2.0,265.7818041,25.01775569,-99999.0,'11111222,11111222,99999999' 
TABS,ioos:station:wmo:42050:1,2015-03-16T12:30:00Z,28.8425,-94.2433,2.0,269.9562226,26.43000757,-99999.0,'11111222,11111222,99999999' 
TABS,ioos:station:wmo:42050:1,2015-03-16T13:00:00Z,28.8425,-94.2433,2.0,280.4862654,26.04495537,-99999.0,'11111222,11111222,99999999' 
TABS,ioos:station:wmo:42050:1,2015-03-16T13:30:00Z,28.8425,-94.2433,2.0,287.5447925,24.41573263,-99999.0,'11111222,11111222,99999999' 
TABS,ioos:station:wmo:42050:1,2015-03-16T14:00:00Z,28.8425,-94.2433,2.0,293.9900974,23.48902084,-99999.0,'11111222,11111222,99999999' 
TABS,ioos:station:wmo:42050:1,2015-03-16T14:30:00Z,28.8425,-94.2433,2.0,298.1003705,25.7105912,-99999.0,'11111222,11111222,99999999' 
TABS,ioos:station:wmo:42050:1,2015-03-16T15:00:00Z,28.8425,-94.2433,2.0,298.8248553,25.63632579,-99999.0,'11111222,11111222,99999999' 
TABS,ioos:station:wmo:42050:1,2015-03-16T15:30:00Z,28.8425,-94.2433,2.0,302.9597928,26.10076627,-99999.0,'11111222,11111222,99999999' 
TABS,ioos:station:wmo:42050:1,2015-03-16T16:00:00Z,28.8425,-94.2433,2.0,302.0808526,25.8703305,-99999.0,'11111222,11111222,99999999' 
TABS,ioos:station:wmo:42050:1,2015-03-16T16:30:00Z,28.8425,-94.2433,2.0,304.553375,26.51767712,-99999.0,'11111222,11111222,99999999' 
TABS,ioos:station:wmo:42050:1,2015-03-16T17:00:00Z,28.8425,-94.2433,2.0,303.2734985,25.91905284,-99999.0,'11111222,11111222,99999999' 
TABS,ioos:station:wmo:42050:1,2015-03-16T17:30:00Z,28.8425,-94.2433,2.0,305.1516524,25.34139894,-99999.0,'11111222,11111222,99999999' 
TABS,ioos:station:wmo:42050:1,2015-03-16T18:00:00Z,28.8425,-94.2433,2.0,306.4954539,24.76652983,-99999.0,'11111222,11111222,99999999' 
TABS,ioos:station:wmo:42050:1,2015-03-16T18:30:00Z,28.8425,-94.2433,2.0,300.1963701,22.52664644,-99999.0,'11111222,11111222,99999999' 
TABS,ioos:station:wmo:42050:1,2015-03-16T19:00:00Z,28.8425,-94.2433,2.0,296.1853449,21.5740585,-99999.0,'11111222,11111222,99999999' 
TABS,ioos:station:wmo:42050:1,2015-03-16T19:30:00Z,28.8425,-94.2433,2.0,295.7858463,22.02283588,-99999.0,'11111222,11111222,99999999' 
TABS,ioos:station:wmo:42050:1,2015-03-16T20:00:00Z,28.8425,-94.2433,2.0,294.4607718,17.29199815,-99999.0,'11111222,11111222,99999999' 
TABS,ioos:station:wmo:42050:1,2015-03-16T20:30:00Z,28.8425,-94.2433,2.0,297.0889848,17.12899588,-99999.0,'11111222,11111222,99999999' 
TABS,ioos:station:wmo:42050:1,2015-03-16T21:00:00Z,28.8425,-94.2433,2.0,297.5468553,17.49309006,-99999.0,'11111222,11111222,99999999' 
TABS,ioos:station:wmo:42050:1,2015-03-16T21:30:00Z,28.8425,-94.2433,2.0,299.8627486,16.32796681,-99999.0,'11111222,11111222,99999999' 
TABS,ioos:station:wmo:42050:1,2015-03-16T22:00:00Z,28.8425,-94.2433,2.0,308.8062036,14.09004258,-99999.0,'11111222,11111222,99999999' 
TABS,ioos:station:wmo:42050:1,2015-03-16T22:30:00Z,28.8425,-94.2433,2.0,318.7090676,11.25950709,-99999.0,'11111222,11111222,99999999' 
TABS,ioos:station:wmo:42050:1,2015-03-16T23:00:00Z,28.8425,-94.2433,2.0,322.9528075,10.32404959,-99999.0,'11111222,11111222,99999999' 
TABS,ioos:station:wmo:42050:1,2015-03-16T23:30:00Z,28.8425,-94.2433,2.0,337.5511384,12.6485177,-99999.0,'11111222,11111222,99999999' 
TABS,ioos:station:wmo:42050:1,2015-03-17T00:00:00Z,28.8425,-94.2433,2.0,349.0857002,11.9359122,-99999.0,'11111222,11111222,99999999' 
TABS,ioos:station:wmo:42050:1,2015-03-17T00:30:00Z,28.8425,-94.2433,2.0,354.8347246,12.55097207,-99999.0,'11111222,11111222,99999999' 
TABS,ioos:station:wmo:42050:1,2015-03-17T01:00:00Z,28.8425,-94.2433,2.0,3.435636584,12.68279149,-99999.0,'11111222,11111222,99999999' 
TABS,ioos:station:wmo:42050:1,2015-03-17T01:30:00Z,28.8425,-94.2433,2.0,13.34247218,13.2167356,-99999.0,'11111222,11111222,99999999' 
TABS,ioos:station:wmo:42050:1,2015-03-17T02:00:00Z,28.8425,-94.2433,2.0,21.30367338,11.75310172,-99999.0,'11111222,11111222,99999999' 
TABS,ioos:station:wmo:42050:1,2015-03-17T02:30:00Z,28.8425,-94.2433,2.0,23.70152468,10.02563215,-99999.0,'11111222,11111222,99999999' 
TABS,ioos:station:wmo:42050:1,2015-03-17T03:00:00Z,28.8425,-94.2433,2.0,28.77700783,9.617785608,-99999.0,'11133222,11111222,99999999' 
TABS,ioos:station:wmo:42050:1,2015-03-17T03:30:00Z,28.8425,-94.2433,2.0,33.09972782,8.881221763,-99999.0,'11133222,11111222,99999999' 
TABS,ioos:station:wmo:42050:1,2015-03-17T04:00:00Z,28.8425,-94.2433,2.0,62.2741956,8.16779652,-99999.0,'11133222,11111222,99999999' 
TABS,ioos:station:wmo:42050:1,2015-03-17T04:30:00Z,28.8425,-94.2433,2.0,57.52888364,6.91035455,-99999.0,'11133222,11111222,99999999' 
TABS,ioos:station:wmo:42050:1,2015-03-17T05:00:00Z,28.8425,-94.2433,2.0,85.75997636,5.815917812,-99999.0,'11133222,11111222,99999999' 
TABS,ioos:station:wmo:42050:1,2015-03-17T05:30:00Z,28.8425,-94.2433,2.0,111.1134507,6.496091132,-99999.0,'11133222,11111222,99999999' 
TABS,ioos:station:wmo:42050:1,2015-03-17T06:00:00Z,28.8425,-94.2433,2.0,143.4005577,6.77607556,-99999.0,'11133222,11111222,99999999' 
TABS,ioos:station:wmo:42050:1,2015-03-17T06:30:00Z,28.8425,-94.2433,2.0,155.2918972,11.31597543,-99999.0,'11111222,11111222,99999999' 
TABS,ioos:station:wmo:42050:1,2015-03-17T07:00:00Z,28.8425,-94.2433,2.0,168.5632915,13.31435691,-99999.0,'11111222,11111222,99999999' 
TABS,ioos:station:wmo:42050:1,2015-03-17T07:30:00Z,28.8425,-94.2433,2.0,175.1596884,12.44437624,-99999.0,'11111222,11111222,99999999' 
TABS,ioos:station:wmo:42050:1,2015-03-17T08:00:00Z,28.8425,-94.2433,2.0,182.3651577,16.23383196,-99999.0,'11111222,11111222,99999999' 
TABS,ioos:station:wmo:42050:1,2015-03-17T08:30:00Z,28.8425,-94.2433,2.0,189.7821737,18.83384188,-99999.0,'11111222,11111222,99999999' 
TABS,ioos:station:wmo:42050:1,2015-03-17T09:00:00Z,28.8425,-94.2433,2.0,195.367447,20.98014538,-99999.0,'11111222,11111222,99999999' 
TABS,ioos:station:wmo:42050:1,2015-03-17T09:30:00Z,28.8425,-94.2433,2.0,201.0123565,19.8285703,-99999.0,'11111222,11111222,99999999' 
TABS,ioos:station:wmo:42050:1,2015-03-17T10:00:00Z,28.8425,-94.2433,2.0,204.5229729,20.33429615,-99999.0,'11111222,11111222,99999999' 
TABS,ioos:station:wmo:42050:1,2015-03-17T10:30:00Z,28.8425,-94.2433,2.0,214.382412,21.10788478,-99999.0,'11111222,11111222,99999999' 
TABS,ioos:station:wmo:42050:1,2015-03-17T11:00:00Z,28.8425,-94.2433,2.0,221.934321,19.4378934,-99999.0,'11111222,11111222,99999999' 
TABS,ioos:station:wmo:42050:1,2015-03-17T11:30:00Z,28.8425,-94.2433,2.0,223.0774399,18.55077896,-99999.0,'11111222,11111222,99999999' 
TABS,ioos:station:wmo:42050:1,2015-03-17T12:00:00Z,28.8425,-94.2433,2.0,235.6540015,17.93740505,-99999.0,'11111222,11111222,99999999' 
TABS,ioos:station:wmo:42050:1,2015-03-17T12:30:00Z,28.8425,-94.2433,2.0,245.8949392,16.77255496,-99999.0,'11111222,11111222,99999999' 
TABS,ioos:station:wmo:42050:1,2015-03-17T13:00:00Z,28.8425,-94.2433,2.0,253.5175537,16.42492314,-99999.0,'11111222,11111222,99999999' 
TABS,ioos:station:wmo:42050:1,2015-03-17T13:30:00Z,28.8425,-94.2433,2.0,264.0109527,16.19840116,-99999.0,'11111222,11111222,99999999' 
TABS,ioos:station:wmo:42050:1,2015-03-17T14:00:00Z,28.8425,-94.2433,2.0,278.3790738,15.6470061,-99999.0,'11111222,11111222,99999999' 
TABS,ioos:station:wmo:42050:1,2015-03-17T14:30:00Z,28.8425,-94.2433,2.0,280.1018587,15.62216374,-99999.0,'11111222,11111222,99999999' 
TABS,ioos:station:wmo:42050:1,2015-03-17T15:00:00Z,28.8425,-94.2433,2.0,286.3617976,14.94522332,-99999.0,'11111222,11111222,99999999' 
TABS,ioos:station:wmo:42050:1,2015-03-17T15:30:00Z,28.8425,-94.2433,2.0,294.4014219,16.58108863,-99999.0,'11111222,11111222,99999999' 
TABS,ioos:station:wmo:42050:1,2015-03-17T16:00:00Z,28.8425,-94.2433,2.0,298.2551848,17.74420751,-99999.0,'11111222,11111222,99999999' 
TABS,ioos:station:wmo:42050:1,2015-03-17T16:30:00Z,28.8425,-94.2433,2.0,301.3663748,15.38894733,-99999.0,'11111222,11111222,99999999' 
TABS,ioos:station:wmo:42050:1,2015-03-17T17:00:00Z,28.8425,-94.2433,2.0,308.2175104,15.56630335,-99999.0,'11111222,11111222,99999999' 
TABS,ioos:station:wmo:42050:1,2015-03-17T17:30:00Z,28.8425,-94.2433,2.0,310.0093701,14.06109882,-99999.0,'11111222,11111222,99999999' 
TABS,ioos:station:wmo:42050:1,2015-03-17T18:00:00Z,28.8425,-94.2433,2.0,313.5101303,13.59519033,-99999.0,'11111222,11111222,99999999' 
TABS,ioos:station:wmo:42050:1,2015-03-17T18:30:00Z,28.8425,-94.2433,2.0,317.334972,12.49787982,-99999.0,'11111222,11111222,99999999' 
TABS,ioos:station:wmo:42050:1,2015-03-17T19:00:00Z,28.8425,-94.2433,2.0,311.334574,10.17487101,-99999.0,'11111222,11111222,99999999' 
TABS,ioos:station:wmo:42050:1,2015-03-17T19:30:00Z,28.8425,-94.2433,2.0,305.544332,10.54482337,-99999.0,'11111222,11111222,99999999' 
TABS,ioos:station:wmo:42050:1,2015-03-17T20:00:00Z,28.8425,-94.2433,2.0,298.7590633,7.71114129,-99999.0,'11133222,11111222,99999999' 
TABS,ioos:station:wmo:42050:1,2015-03-17T20:30:00Z,28.8425,-94.2433,2.0,289.286987,7.871778706,-99999.0,'11133222,11111222,99999999' 
TABS,ioos:station:wmo:42050:1,2015-03-17T21:00:00Z,28.8425,-94.2433,2.0,279.4923082,6.367173627,-99999.0,'11133222,11111222,99999999' 
TABS,ioos:station:wmo:42050:1,2015-03-17T21:30:00Z,28.8425,-94.2433,2.0,261.3781683,5.937086828,-99999.0,'11133222,11111222,99999999' 
TABS,ioos:station:wmo:42050:1,2015-03-17T22:00:00Z,28.8425,-94.2433,2.0,265.7397823,6.327479751,-99999.0,'11133222,11111222,99999999' 
TABS,ioos:station:wmo:42050:1,2015-03-17T22:30:00Z,28.8425,-94.2433,2.0,263.4695167,6.331074158,-99999.0,'11133222,11111222,99999999' 
TABS,ioos:station:wmo:42050:1,2015-03-17T23:00:00Z,28.8425,-94.2433,2.0,273.2793995,5.769445381,-99999.0,'11133222,11111222,99999999' 
TABS,ioos:station:wmo:42050:1,2015-03-17T23:30:00Z,28.8425,-94.2433,2.0,267.4570377,5.635547888,-99999.0,'11133222,11111222,99999999' 
TABS,ioos:station:wmo:42050:1,2015-03-18T00:00:00Z,28.8425,-94.2433,2.0,291.843449,5.10662315,-99999.0,'11133222,11111222,99999999' 
TABS,ioos:station:wmo:42050:1,2015-03-18T00:30:00Z,28.8425,-94.2433,2.0,288.3403091,5.720568154,-99999.0,'11133222,11111222,99999999' 
TABS,ioos:station:wmo:42050:1,2015-03-18T01:00:00Z,28.8425,-94.2433,2.0,289.0014118,6.081356757,-99999.0,'11133222,11111222,99999999' 
TABS,ioos:station:wmo:42050:1,2015-03-18T01:30:00Z,28.8425,-94.2433,2.0,304.5437783,10.98705602,-99999.0,'11111222,11111222,99999999' 
TABS,ioos:station:wmo:42050:1,2015-03-18T02:00:00Z,28.8425,-94.2433,2.0,310.448163,13.36404879,-99999.0,'11111222,11111222,99999999' 
TABS,ioos:station:wmo:42050:1,2015-03-18T02:30:00Z,28.8425,-94.2433,2.0,326.085494,15.55668667,-99999.0,'11111222,11111222,99999999' 
TABS,ioos:station:wmo:42050:1,2015-03-18T03:00:00Z,28.8425,-94.2433,2.0,329.966457,14.26541622,-99999.0,'11111222,11111222,99999999' 
TABS,ioos:station:wmo:42050:1,2015-03-18T03:30:00Z,28.8425,-94.2433,2.0,339.2402204,15.12181206,-99999.0,'11111222,11111222,99999999' 
TABS,ioos:station:wmo:42050:1,2015-03-18T04:00:00Z,28.8425,-94.2433,2.0,345.3073449,14.39058373,-99999.0,'11111222,11111222,99999999' 
TABS,ioos:station:wmo:42050:1,2015-03-18T04:30:00Z,28.8425,-94.2433,2.0,351.3584149,13.77640374,-99999.0,'11111222,11111222,99999999' 
TABS,ioos:station:wmo:42050:1,2015-03-18T05:00:00Z,28.8425,-94.2433,2.0,4.110456998,13.25408993,-99999.0,'11111222,11111222,99999999' 
TABS,ioos:station:wmo:42050:1,2015-03-18T05:30:00Z,28.8425,-94.2433,2.0,8.576566018,11.80197017,-99999.0,'11111222,11111222,99999999' 
TABS,ioos:station:wmo:42050:1,2015-03-18T06:00:00Z,28.8425,-94.2433,2.0,16.16130835,9.484814178,-99999.0,'11133222,11111222,99999999' 
TABS,ioos:station:wmo:42050:1,2015-03-18T06:30:00Z,28.8425,-94.2433,2.0,30.09637086,5.663532467,-99999.0,'11133222,11111222,99999999' 
TABS,ioos:station:wmo:42050:1,2015-03-18T07:00:00Z,28.8425,-94.2433,2.0,58.37011746,5.014957627,-99999.0,'11133222,11111222,99999999' 
TABS,ioos:station:wmo:42050:1,2015-03-18T07:30:00Z,28.8425,-94.2433,2.0,98.85588009,3.572590097,-99999.0,'11133222,11111222,99999999' 
TABS,ioos:station:wmo:42050:1,2015-03-18T08:00:00Z,28.8425,-94.2433,2.0,114.1295501,4.525417108,-99999.0,'11133222,11111222,99999999' 
TABS,ioos:station:wmo:42050:1,2015-03-18T08:30:00Z,28.8425,-94.2433,2.0,143.3710765,6.654058912,-99999.0,'11133222,11111222,99999999' 
TABS,ioos:station:wmo:42050:1,2015-03-18T09:00:00Z,28.8425,-94.2433,2.0,147.2440583,10.0358607,-99999.0,'11111222,11111222,99999999' 
TABS,ioos:station:wmo:42050:1,2015-03-18T09:30:00Z,28.8425,-94.2433,2.0,156.3060644,8.659982679,-99999.0,'11133222,11111222,99999999' 
TABS,ioos:station:wmo:42050:1,2015-03-18T10:00:00Z,28.8425,-94.2433,2.0,152.8300502,9.745327085,-99999.0,'11133222,11111222,99999999' 
TABS,ioos:station:wmo:42050:1,2015-03-18T10:30:00Z,28.8425,-94.2433,2.0,166.9427634,8.941168827,-99999.0,'11133222,11111222,99999999' 
TABS,ioos:station:wmo:42050:1,2015-03-18T11:00:00Z,28.8425,-94.2433,2.0,173.1616242,9.910499483,-99999.0,'11133222,11111222,99999999' 
TABS,ioos:station:wmo:42050:1,2015-03-18T11:30:00Z,28.8425,-94.2433,2.0,177.6685818,9.587935127,-99999.0,'11133222,11111222,99999999' 
TABS,ioos:station:wmo:42050:1,2015-03-18T12:00:00Z,28.8425,-94.2433,2.0,184.8703592,8.008920027,-99999.0,'11133222,11111222,99999999' 
TABS,ioos:station:wmo:42050:1,2015-03-18T12:30:00Z,28.8425,-94.2433,2.0,192.9478152,8.301066197,-99999.0,'11133222,11111222,99999999' 
TABS,ioos:station:wmo:42050:1,2015-03-18T13:00:00Z,28.8425,-94.2433,2.0,189.7965776,6.758557538,-99999.0,'11133222,11111222,99999999' 
TABS,ioos:station:wmo:42050:1,2015-03-18T13:30:00Z,28.8425,-94.2433,2.0,192.9156948,5.458094906,-99999.0,'11133222,11111222,99999999' 
TABS,ioos:station:wmo:42050:1,2015-03-18T14:00:00Z,28.8425,-94.2433,2.0,207.4863449,5.004967532,-99999.0,'11133222,11111222,99999999' 
TABS,ioos:station:wmo:42050:1,2015-03-18T14:30:00Z,28.8425,-94.2433,2.0,235.98253,5.344623467,-99999.0,'11133222,11111222,99999999' 
TABS,ioos:station:wmo:42050:1,2015-03-18T15:00:00Z,28.8425,-94.2433,2.0,238.3921507,5.037231382,-99999.0,'11133222,11111222,99999999' 
TABS,ioos:station:wmo:42050:1,2015-03-18T15:30:00Z,28.8425,-94.2433,2.0,277.4318115,4.870913672,-99999.0,'11133222,11111222,99999999' 
TABS,ioos:station:wmo:42050:1,2015-03-18T16:00:00Z,28.8425,-94.2433,2.0,278.934874,6.245782577,-99999.0,'11133222,11111222,99999999' 
TABS,ioos:station:wmo:42050:1,2015-03-18T16:30:00Z,28.8425,-94.2433,2.0,280.5883108,8.871037143,-99999.0,'11133222,11111222,99999999' 
TABS,ioos:station:wmo:42050:1,2015-03-18T17:00:00Z,28.8425,-94.2433,2.0,293.874963,12.5760924,-99999.0,'11111222,11111222,99999999' 
TABS,ioos:station:wmo:42050:1,2015-03-18T17:30:00Z,28.8425,-94.2433,2.0,301.2976371,13.55204782,-99999.0,'11111222,11111222,99999999' 
TABS,ioos:station:wmo:42050:1,2015-03-18T18:00:00Z,28.8425,-94.2433,2.0,310.9956127,14.98482566,-99999.0,'11111222,11111222,99999999' 
TABS,ioos:station:wmo:42050:1,2015-03-18T18:30:00Z,28.8425,-94.2433,2.0,309.1785256,14.49976552,-99999.0,'11111222,11111222,99999999' 
TABS,ioos:station:wmo:42050:1,2015-03-18T19:00:00Z,28.8425,-94.2433,2.0,313.9277252,12.84330954,-99999.0,'11111222,11111222,99999999' 
TABS,ioos:station:wmo:42050:1,2015-03-18T19:30:00Z,28.8425,-94.2433,2.0,312.8738897,11.24366933,-99999.0,'11111222,11111222,99999999' 
TABS,ioos:station:wmo:42050:1,2015-03-18T20:00:00Z,28.8425,-94.2433,2.0,311.2790111,10.45894832,-99999.0,'11111222,11111222,99999999' 
TABS,ioos:station:wmo:42050:1,2015-03-18T20:30:00Z,28.8425,-94.2433,2.0,297.5045987,9.549293168,-99999.0,'11133222,11111222,99999999' 
TABS,ioos:station:wmo:42050:1,2015-03-18T21:00:00Z,28.8425,-94.2433,2.0,292.9480853,7.797050724,-99999.0,'11133222,11111222,99999999' 